Location: Drocourt
(49.0571°N, 1.7669°E)
Time: 06:06:37
(UTC+00:00)

SR - Pass Details

Date: 25 April 2024
Orbit: 579 x 859 km, 66.7° (Epoch: 26 May)

Event Time Altitude Azimuth Distance (km) Brightness Sun altitude
Exits shadow 23:47:24 33° 85° (E) 1,264 ? -27.3°
Drops below altitude 10° 23:50:50 10° 49° (NE) 2,230 ? -27.3°
Sets 23:53:14 0° 42° (NE) 3,107 ? -27.3°
